TimeCST,TemperatureF,Dew PointF,Humidity,Sea Level PressureIn,VisibilityMPH,Wind Direction,Wind SpeedMPH,Gust SpeedMPH,PrecipitationIn,Events,Conditions,WindDirDegrees,DateUTC
12:56 AM,3.0,1.0,91,30.16,-9999.0,North,4.6,-,N/A,,Unknown,360,2013-02-23 06:56:00
1:56 AM,5.0,3.0,92,30.14,-9999.0,Calm,Calm,-,N/A,,Unknown,0,2013-02-23 07:56:00
2:56 AM,1.9,-0.0,91,30.13,-9999.0,NNW,3.5,-,N/A,,Unknown,330,2013-02-23 08:56:00
3:56 AM,3.0,-0.0,87,30.08,-9999.0,North,4.6,-,N/A,,Unknown,360,2013-02-23 09:56:00
4:56 AM,3.0,-0.0,87,30.08,-9999.0,West,3.5,-,N/A,,Unknown,260,2013-02-23 10:56:00
5:56 AM,1.9,-0.9,88,30.08,-9999.0,North,4.6,-,N/A,,Unknown,360,2013-02-23 11:56:00
6:56 AM,1.0,-0.9,91,30.08,-9999.0,North,4.6,-,N/A,,Unknown,360,2013-02-23 12:56:00
7:56 AM,3.0,-0.0,87,30.08,-9999.0,Calm,Calm,-,N/A,,Unknown,0,2013-02-23 13:56:00
8:56 AM,8.1,8.1,100,30.09,-9999.0,Calm,Calm,-,N/A,,Unknown,0,2013-02-23 14:56:00
9:56 AM,15.1,12.9,91,30.09,-9999.0,Calm,Calm,-,N/A,,Unknown,0,2013-02-23 15:56:00
10:56 AM,17.1,12.9,84,30.08,-9999.0,SE,3.5,-,N/A,,Unknown,140,2013-02-23 16:56:00
11:56 AM,21.9,17.1,82,30.07,-9999.0,South,3.5,-,N/A,,Unknown,180,2013-02-23 17:56:00
12:56 PM,28.0,19.9,72,30.04,-9999.0,South,4.6,-,N/A,,Unknown,190,2013-02-23 18:56:00
1:56 PM,30.0,21.9,72,29.99,-9999.0,East,3.5,-,N/A,,Unknown,100,2013-02-23 19:56:00
2:56 PM,30.0,23.0,75,29.99,-9999.0,SSE,6.9,-,N/A,,Unknown,160,2013-02-23 20:56:00
3:56 PM,28.9,23.0,78,29.98,-9999.0,SSE,6.9,-,N/A,,Unknown,160,2013-02-23 21:56:00
4:56 PM,30.9,24.1,76,29.95,-9999.0,SSE,4.6,-,N/A,,Unknown,150,2013-02-23 22:56:00
5:56 PM,28.9,23.0,78,29.94,-9999.0,SE,5.8,-,N/A,,Unknown,130,2013-02-23 23:56:00
6:56 PM,28.0,23.0,81,29.95,-9999.0,ESE,5.8,-,N/A,,Unknown,120,2013-02-24 00:56:00
7:56 PM,26.1,23.0,88,29.95,-9999.0,ESE,5.8,-,N/A,,Unknown,110,2013-02-24 01:56:00
8:56 PM,27.0,23.0,85,29.93,-9999.0,East,9.2,-,N/A,,Unknown,100,2013-02-24 02:56:00
9:56 PM,27.0,23.0,85,29.94,-9999.0,ESE,6.9,-,N/A,,Unknown,110,2013-02-24 03:56:00
10:56 PM,26.1,23.0,88,29.92,-9999.0,ESE,8.1,-,N/A,,Unknown,110,2013-02-24 04:56:00
11:56 PM,25.0,23.0,92,29.90,-9999.0,ESE,9.2,-,N/A,,Unknown,120,2013-02-24 05:56:00